Find Starlink 33719

NORAD ID: 63578 Int'l Des: 2025-076 Owner: SPXS Country: US Constellation: starlink operational
LEOCIRCULAR

現在のビュー

3D地球を読み込み中...

About Starlink 33719

Starlink 33719 (NORAD 63578) is a starlink constellation satellite (v2 mini) launched Apr 14, 2025 by SPXS of US. It operates in LEO, CIRCULAR orbit with a mass of 575.00 kg.

次回通過

Passes for default location (London). Set your location on the main map for personalized predictions.

高度履歴

Loading altitude history...

軌道要素

1 63578U 25076K 26264.40701905 .00011632 00000-0 43141-3 0 9994
2 63578 43.0046 296.3175 0001155 267.6856 92.3863 15.27590542 81766
Epoch: Sep 21, 2026 • Age: 27 hours

現在のステータス

高度 483.2 km
遠地点 / 近地点 N/A
速度 7.63 km/s
衛星直下点 23.86°N, 115.74°W
打ち上げ日 Apr 14, 2025
運用期間 1.4 years
タイプ internet

技術仕様

分類 Payload
質量 575.00 kg
乾燥質量 530.00 kg
長さ 0.30 m
スパン 29.00 m
形状 ? Box + pan
製造者 SPXS
バスタイプ Starlink V2MO
フェーズステータス In Orbit
所有者/国 SPXS/US

Most Searched